EA7RX-13 Weather Reports


Display with metric or nautical units.
time (UTC)temp
F
wind
direction
speed
MPH
gust
MPH
rain 1hr
in
rain 24hr
in
rain mn
in
humidity
%
barometer
mb
20260903235632 84 0.0 0.0 0.00 0.00 0.00 34 1018.7
20260903234632 84 0.0 0.0 0.00 0.00 0.00 35 1018.8
20260903233632 84 0.0 0.0 0.00 0.00 0.00 34 1018.8
20260903232632 83 0.0 0.0 0.00 0.00 0.00 34 1018.8
20260903231632 83 0.0 0.0 0.00 0.00 0.00 34 1018.8
20260903230632 84 0.0 0.0 0.00 0.00 0.00 33 1018.8
20260903225632 84 0.0 0.0 0.00 0.00 0.00 33 1018.7
20260903224632 83 0.0 0.0 0.00 0.00 0.00 34 1018.8
20260903223632 84 0.0 0.0 0.00 0.00 0.00 34 1018.7
20260903222632 83 0.0 0.0 0.00 0.00 0.00 34 1018.7
20260903221632 84 0.0 0.0 0.00 0.00 0.00 36 1018.6
20260903220632 84 0.0 0.0 0.00 0.00 0.00 38 1018.6
20260903215632 85 0.0 0.0 0.00 0.00 0.00 32 1018.4
20260903214632 85 0.0 0.0 0.00 0.00 0.00 33 1018.4
20260903213632 86 0.0 0.0 0.00 0.00 0.00 34 1018.3
20260903212632 86 0.0 0.0 0.00 0.00 0.00 32 1018.4
20260903211632 86 0.0 0.0 0.00 0.00 0.00 33 1018.3
20260903210632 86 0.0 0.0 0.00 0.00 0.00 33 1018.2
20260903205632 85 0.0 0.0 0.00 0.00 0.00 36 1018.2
20260903204632 85 0.0 0.0 0.00 0.00 0.00 36 1018.1
20260903203632 87 0.0 0.0 0.00 0.00 0.00 34 1017.9
20260903202632 87 0.0 0.0 0.00 0.00 0.00 36 1017.8
20260903201632 86 0.0 0.0 0.00 0.00 0.00 36 1017.6
20260903200632 86 0.0 0.0 0.00 0.00 0.00 37 1017.5
20260903195632 86 0.0 0.0 0.00 0.00 0.00 39 1017.4
20260903194632 87 0.0 0.0 0.00 0.00 0.00 37 1017.2
20260903193632 87 0.0 0.0 0.00 0.00 0.00 38 1017.0
20260903192632 88 0.0 0.0 0.00 0.00 0.00 36 1016.7
20260903191632 88 0.0 0.0 0.00 0.00 0.00 36 1016.6
20260903190632 89 0.0 0.0 0.00 0.00 0.00 38 1016.3
20260903185632 89 0.0 0.0 0.00 0.00 0.00 37 1016.2
20260903184632 90 0.0 0.0 0.00 0.00 0.00 39 1016.2
20260903183632 91 0.0 0.0 0.00 0.00 0.00 36 1016.0
20260903182632 93 0.0 0.0 0.00 0.00 0.00 37 1015.9
20260903181632 95 0.0 0.0 0.00 0.00 0.00 34 1015.8
20260903180632 96 0.0 0.0 0.00 0.00 0.00 31 1015.7
20260903175632 98 0.0 0.0 0.00 0.00 0.00 29 1015.5
20260903174632 100 0.0 0.0 0.00 0.00 0.00 28 1015.4
20260903173632 102 0.0 0.0 0.00 0.00 0.00 25 1015.2
20260903172632 103 0.0 0.0 0.00 0.00 0.00 24 1015.3
20260903171632 103 0.0 0.0 0.00 0.00 0.00 24 1015.2
20260903170632 104 0.0 0.0 0.00 0.00 0.00 23 1015.2
20260903165632 105 0.0 0.0 0.00 0.00 0.00 21 1015.1
20260903164632 106 0.0 0.0 0.00 0.00 0.00 19 1015.1
20260903163632 105 0.0 0.0 0.00 0.00 0.00 19 1015.2
20260903162632 106 0.0 0.0 0.00 0.00 0.00 17 1015.1
20260903161632 106 0.0 0.0 0.00 0.00 0.00 19 1015.0
20260903160632 107 0.0 0.0 0.00 0.00 0.00 18 1015.1
20260903155632 107 0.0 0.0 0.00 0.00 0.00 19 1015.0
20260903154632 107 0.0 0.0 0.00 0.00 0.00 22 1015.0
20260903153632 107 0.0 0.0 0.00 0.00 0.00 20 1015.1
20260903152632 107 0.0 0.0 0.00 0.00 0.00 20 1015.2
20260903151632 108 0.0 0.0 0.00 0.00 0.00 20 1015.1
20260903150632 108 0.0 0.0 0.00 0.00 0.00 22 1015.2
20260903145632 108 0.0 0.0 0.00 0.00 0.00 21 1015.3
20260903144632 109 0.0 0.0 0.00 0.00 0.00 22 1015.3
20260903143632 108 0.0 0.0 0.00 0.00 0.00 22 1015.4
20260903142632 108 0.0 0.0 0.00 0.00 0.00 22 1015.6
20260903141632 109 0.0 0.0 0.00 0.00 0.00 23 1015.6
20260903140632 108 0.0 0.0 0.00 0.00 0.00 23 1015.6
20260903135632 109 0.0 0.0 0.00 0.00 0.00 23 1015.7
20260903134632 109 0.0 0.0 0.00 0.00 0.00 23 1015.7
20260903133632 109 0.0 0.0 0.00 0.00 0.00 25 1015.8
20260903132632 108 0.0 0.0 0.00 0.00 0.00 25 1016.1
20260903131632 107 0.0 0.0 0.00 0.00 0.00 27 1016.3
20260903130632 109 0.0 0.0 0.00 0.00 0.00 27 1016.1
20260903125632 107 0.0 0.0 0.00 0.00 0.00 27 1016.4
20260903124632 109 0.0 0.0 0.00 0.00 0.00 28 1016.2
20260903123632 106 0.0 0.0 0.00 0.00 0.00 29 1016.5
20260903122632 106 0.0 0.0 0.00 0.00 0.00 28 1016.7
20260903121632 105 0.0 0.0 0.00 0.00 0.00 29 1016.9
20260903120632 105 0.0 0.0 0.00 0.00 0.00 29 1017.0
20260903115632 104 0.0 0.0 0.00 0.00 0.00 30 1017.1
20260903114632 103 0.0 0.0 0.00 0.00 0.00 31 1017.3
20260903113632 103 0.0 0.0 0.00 0.00 0.00 30 1017.5
20260903112632 102 0.0 0.0 0.00 0.00 0.00 32 1017.8
20260903111632 103 0.0 0.0 0.00 0.00 0.00 33 1017.9
20260903110632 100 0.0 0.0 0.00 0.00 0.00 35 1018.2
20260903105632 98 0.0 0.0 0.00 0.00 0.00 36 1018.4
20260903104631 98 0.0 0.0 0.00 0.00 0.00 37 1018.6
20260903103632 97 0.0 0.0 0.00 0.00 0.00 36 1018.6
20260903102632 95 0.0 0.0 0.00 0.00 0.00 38 1018.8
20260903101632 94 0.0 0.0 0.00 0.00 0.00 39 1018.9
20260903100632 94 0.0 0.0 0.00 0.00 0.00 40 1018.9
20260903095631 93 0.0 0.0 0.00 0.00 0.00 40 1019.1
20260903094632 93 0.0 0.0 0.00 0.00 0.00 42 1019.2
20260903093632 91 0.0 0.0 0.00 0.00 0.00 43 1019.2
20260903092631 91 0.0 0.0 0.00 0.00 0.00 43 1019.2
20260903091631 90 0.0 0.0 0.00 0.00 0.00 44 1019.1
20260903090631 89 0.0 0.0 0.00 0.00 0.00 44 1019.1
20260903085631 89 0.0 0.0 0.00 0.00 0.00 46 1019.0
20260903084631 88 0.0 0.0 0.00 0.00 0.00 46 1019.0
20260903083631 87 0.0 0.0 0.00 0.00 0.00 49 1019.0
20260903082631 86 0.0 0.0 0.00 0.00 0.00 48 1019.1
20260903081631 86 0.0 0.0 0.00 0.00 0.00 50 1019.1
20260903080631 84 0.0 0.0 0.00 0.00 0.00 53 1019.2
20260903075631 84 0.0 0.0 0.00 0.00 0.00 57 1019.3
20260903074631 82 0.0 0.0 0.00 0.00 0.00 60 1019.5
20260903073631 81 0.0 0.0 0.00 0.00 0.00 62 1019.5
20260903072631 81 0.0 0.0 0.00 0.00 0.00 67 1019.5
20260903071631 79 0.0 0.0 0.00 0.00 0.00 68 1019.7
20260903070633 80 0.0 0.0 0.00 0.00 0.00 60 1019.5
20260903065631 80 0.0 0.0 0.00 0.00 0.00 59 1019.4
20260903064631 78 0.0 0.0 0.00 0.00 0.00 60 1019.5
20260903063631 78 0.0 0.0 0.00 0.00 0.00 58 1019.4
20260903062631 78 0.0 0.0 0.00 0.00 0.00 60 1019.3
20260903061631 78 0.0 0.0 0.00 0.00 0.00 58 1019.1
20260903060631 80 0.0 0.0 0.00 0.00 0.00 53 1018.8
20260903055631 80 0.0 0.0 0.00 0.00 0.00 52 1018.7
20260903054631 79 0.0 0.0 0.00 0.00 0.00 54 1018.6
20260903053631 80 0.0 0.0 0.00 0.00 0.00 51 1018.5
20260903052631 80 0.0 0.0 0.00 0.00 0.00 51 1018.4
20260903051631 81 0.0 0.0 0.00 0.00 0.00 51 1018.3
20260903050631 80 0.0 0.0 0.00 0.00 0.00 52 1018.4
20260903045631 81 0.0 0.0 0.00 0.00 0.00 50 1018.3
20260903044631 81 0.0 0.0 0.00 0.00 0.00 51 1018.2
20260903043631 80 0.0 0.0 0.00 0.00 0.00 51 1018.2
20260903042631 80 0.0 0.0 0.00 0.00 0.00 52 1018.1
20260903041631 81 0.0 0.0 0.00 0.00 0.00 51 1018.2
20260903040631 81 0.0 0.0 0.00 0.00 0.00 51 1018.1
20260903035631 81 0.0 0.0 0.00 0.00 0.00 51 1018.0
20260903034631 81 0.0 0.0 0.00 0.00 0.00 51 1018.0
20260903033631 81 0.0 0.0 0.00 0.00 0.00 51 1018.2
20260903032631 80 0.0 0.0 0.00 0.00 0.00 52 1018.2
20260903031631 80 0.0 0.0 0.00 0.00 0.00 53 1018.2
20260903030631 80 0.0 0.0 0.00 0.00 0.00 53 1018.2
20260903025631 80 0.0 0.0 0.00 0.00 0.00 52 1018.3
20260903024631 80 0.0 0.0 0.00 0.00 0.00 54 1018.4
20260903023631 81 0.0 0.0 0.00 0.00 0.00 53 1018.3
20260903022631 80 0.0 0.0 0.00 0.00 0.00 54 1018.4
20260903021631 81 0.0 0.0 0.00 0.00 0.00 53 1018.4
20260903020631 81 0.0 0.0 0.00 0.00 0.00 52 1018.4
20260903015631 82 0.0 0.0 0.00 0.00 0.00 49 1018.2
20260903014631 81 0.0 0.0 0.00 0.00 0.00 54 1018.5
20260903013631 81 0.0 0.0 0.00 0.00 0.00 56 1018.5
20260903012631 81 0.0 0.0 0.00 0.00 0.00 54 1018.3
20260903011631 81 0.0 0.0 0.00 0.00 0.00 53 1018.5
20260903010631 81 0.0 0.0 0.00 0.00 0.00 53 1018.6
20260903005631 81 0.0 0.0 0.00 0.00 0.00 54 1018.5
20260903004631 82 0.0 0.0 0.00 0.00 0.00 52 1018.5
20260903003631 83 0.0 0.0 0.00 0.00 0.00 51 1018.4
20260903002631 84 0.0 0.0 0.00 0.00 0.00 49 1018.3
20260903001631 84 0.0 0.0 0.00 0.00 0.00 49 1018.4
20260903000631 85 0.0 0.0 0.00 0.00 0.00 47 1018.2